DAL4187 KLAX-KMRY

Flight info

Callsign DAL4187
Flight time N/A
Altitude 30000
Route SUMMR2 SCTRR WIGGL
Aircraft B738/M-SDE2E3FGHIRWXY/LB1

Departure

Time 2026-04-22 04:40
Airport Los Angeles International Airport (KLAX)

Arrival

Time N/A
Airport Monterey Regional Airport (KMRY)
Time Latitude Longitude Altitude Speed Heading
2026-04-22 04:07 33.94665 -118.40494 121 ft 0 kts 98°
2026-04-22 04:27 33.94667 -118.40510 121 ft 2 kts 97°
2026-04-22 04:28 33.94669 -118.40527 121 ft 1 kts 99°
2026-04-22 04:28 33.94671 -118.40539 121 ft 2 kts 82°
2026-04-22 04:28 33.94665 -118.40556 121 ft 2 kts 51°
2026-04-22 04:28 33.94653 -118.40566 121 ft 2 kts 21°
2026-04-22 04:29 33.94641 -118.40569 121 ft 0 kts 356°
2026-04-22 04:29 33.94634 -118.40568 121 ft 1 kts 352°
2026-04-22 04:29 33.94633 -118.40568 121 ft 0 kts 352°
2026-04-22 04:32 33.94641 -118.40569 121 ft 3 kts 352°
2026-04-22 04:32 33.94669 -118.40573 121 ft 3 kts 353°
2026-04-22 04:33 33.94693 -118.40577 121 ft 3 kts 353°
2026-04-22 04:33 33.94704 -118.40578 121 ft 0 kts 354°
2026-04-22 04:33 33.94707 -118.40579 121 ft 1 kts 354°
2026-04-22 04:34 33.94713 -118.40580 121 ft 0 kts 354°
2026-04-22 04:35 33.94714 -118.40580 121 ft 0 kts 354°
2026-04-22 04:36 33.94751 -118.40588 121 ft 10 kts 349°
2026-04-22 04:36 33.94821 -118.40603 121 ft 9 kts 359°
2026-04-22 04:36 33.94867 -118.40548 121 ft 13 kts 71°
2026-04-22 04:36 33.94883 -118.40431 119 ft 15 kts 83°
2026-04-22 04:37 33.94898 -118.40297 118 ft 17 kts 83°
2026-04-22 04:37 33.94913 -118.40153 117 ft 17 kts 85°
2026-04-22 04:37 33.94924 -118.40008 114 ft 16 kts 84°
2026-04-22 04:37 33.94947 -118.39937 114 ft 7 kts 41°
2026-04-22 04:38 33.94952 -118.39932 114 ft 0 kts 32°
2026-04-22 04:38 33.94953 -118.39932 114 ft 1 kts 32°
2026-04-22 04:38 33.95027 -118.39901 112 ft 20 kts 17°
2026-04-22 04:39 33.95049 -118.39909 113 ft 4 kts 264°
2026-04-22 04:39 33.95045 -118.39950 113 ft 5 kts 264°
2026-04-22 04:39 33.95019 -118.40178 117 ft 58 kts 263°
2026-04-22 04:39 33.94939 -118.40923 124 ft 118 kts 263°
2026-04-22 04:40 33.94806 -118.42115 140 ft 163 kts 262°
2026-04-22 04:40 33.94668 -118.43515 561 ft 173 kts 265°
2026-04-22 04:40 33.94541 -118.44907 1232 ft 175 kts 263°
2026-04-22 04:40 33.94390 -118.46436 1680 ft 191 kts 265°
2026-04-22 04:41 33.94307 -118.48093 2219 ft 210 kts 269°
2026-04-22 04:41 33.94264 -118.49910 2884 ft 226 kts 270°
2026-04-22 04:41 33.94181 -118.51842 3611 ft 239 kts 267°
2026-04-22 04:41 33.94025 -118.53878 4326 ft 252 kts 265°
2026-04-22 04:42 33.93845 -118.55983 5239 ft 257 kts 265°
2026-04-22 04:42 33.93669 -118.58122 6173 ft 260 kts 265°
2026-04-22 04:42 33.93501 -118.60235 7200 ft 258 kts 265°
2026-04-22 04:42 33.93335 -118.62360 8214 ft 257 kts 265°
2026-04-22 04:43 33.93169 -118.64460 9159 ft 257 kts 265°
2026-04-22 04:43 33.93005 -118.66572 10114 ft 256 kts 264°
2026-04-22 04:43 33.92836 -118.68740 10710 ft 269 kts 264°
2026-04-22 04:43 33.92658 -118.71012 11451 ft 276 kts 264°
2026-04-22 04:44 33.92478 -118.73357 11876 ft 284 kts 264°
2026-04-22 04:44 33.92296 -118.75710 11969 ft 280 kts 264°
2026-04-22 04:44 33.92115 -118.78008 11974 ft 275 kts 264°
2026-04-22 04:44 33.91936 -118.80275 11989 ft 274 kts 264°
2026-04-22 04:45 33.91758 -118.82600 12029 ft 286 kts 266°
2026-04-22 04:45 33.91711 -118.84941 13079 ft 279 kts 270°
2026-04-22 04:45 33.91766 -118.87234 13930 ft 279 kts 271°
2026-04-22 04:45 33.91862 -118.89593 14694 ft 282 kts 271°
2026-04-22 04:46 33.91955 -118.91929 15449 ft 285 kts 271°
2026-04-22 04:46 33.92033 -118.94303 16217 ft 286 kts 271°
2026-04-22 04:46 33.92104 -118.96696 16918 ft 289 kts 271°
2026-04-22 04:46 33.92189 -118.99094 17646 ft 291 kts 272°
2026-04-22 04:47 33.92483 -119.01523 18317 ft 296 kts 282°
2026-04-22 04:47 33.93279 -119.03832 18979 ft 303 kts 294°
2026-04-22 04:47 33.94368 -119.06007 19613 ft 308 kts 297°
2026-04-22 04:47 33.95526 -119.08158 20257 ft 309 kts 297°
2026-04-22 04:48 33.96696 -119.10336 20864 ft 312 kts 297°
2026-04-22 04:48 33.97862 -119.12549 21444 ft 314 kts 296°
2026-04-22 04:48 33.99031 -119.14788 22051 ft 315 kts 296°
2026-04-22 04:48 34.00232 -119.16992 22660 ft 318 kts 299°
2026-04-22 04:49 34.01660 -119.19074 23106 ft 330 kts 308°
2026-04-22 04:49 34.03401 -119.20856 23768 ft 333 kts 315°
2026-04-22 04:49 34.05310 -119.22517 24315 ft 337 kts 317°
2026-04-22 04:49 34.07241 -119.24112 24937 ft 337 kts 317°
2026-04-22 04:50 34.09168 -119.25706 25358 ft 341 kts 317°
2026-04-22 04:50 34.11120 -119.27340 26079 ft 336 kts 316°
2026-04-22 04:50 34.12999 -119.28927 26814 ft 331 kts 316°
2026-04-22 04:50 34.14849 -119.30503 27507 ft 325 kts 315°
2026-04-22 04:51 34.16705 -119.32095 28072 ft 323 kts 315°
2026-04-22 04:51 34.18521 -119.33655 28566 ft 323 kts 316°
2026-04-22 04:51 34.20344 -119.35227 29135 ft 320 kts 315°
2026-04-22 04:51 34.22126 -119.36768 29692 ft 316 kts 314°
2026-04-22 04:52 34.23912 -119.38319 30082 ft 317 kts 315°
2026-04-22 04:52 34.27562 -119.41490 30139 ft 322 kts 315°
2026-04-22 04:53 34.31298 -119.44736 30135 ft 341 kts 316°
2026-04-22 04:53 34.35258 -119.48159 30128 ft 356 kts 316°
2026-04-22 04:54 34.39272 -119.51614 30126 ft 352 kts 316°
2026-04-22 04:54 34.43222 -119.55098 30128 ft 351 kts 314°
2026-04-22 04:55 34.47041 -119.58720 30122 ft 349 kts 313°
2026-04-22 04:55 34.50873 -119.62378 30121 ft 349 kts 314°
2026-04-22 04:56 34.54705 -119.66006 30123 ft 348 kts 313°
2026-04-22 04:56 34.58521 -119.69617 30118 ft 349 kts 313°
2026-04-22 04:57 34.62351 -119.73235 30114 ft 347 kts 313°
2026-04-22 04:57 34.66154 -119.76839 30119 ft 346 kts 314°
2026-04-22 04:58 34.69934 -119.80419 30118 ft 346 kts 313°
2026-04-22 04:58 34.73771 -119.84064 30117 ft 347 kts 313°
2026-04-22 04:59 34.77558 -119.87658 30110 ft 346 kts 313°
2026-04-22 04:59 34.81345 -119.91257 30112 ft 345 kts 313°
2026-04-22 05:00 34.85126 -119.94855 30108 ft 345 kts 314°
2026-04-22 05:00 34.88932 -119.98446 30103 ft 346 kts 314°
2026-04-22 05:01 34.92698 -120.02052 30099 ft 340 kts 313°
2026-04-22 05:01 34.96448 -120.05637 30100 ft 343 kts 313°
2026-04-22 05:02 34.99892 -120.08958 30103 ft 343 kts 314°
2026-04-22 05:02 35.03636 -120.12546 30104 ft 342 kts 313°
2026-04-22 05:03 35.07371 -120.16169 30108 ft 343 kts 313°
2026-04-22 05:03 35.11124 -120.19762 30106 ft 341 kts 314°
2026-04-22 05:04 35.14895 -120.23326 30114 ft 340 kts 314°
2026-04-22 05:04 35.18603 -120.26881 30111 ft 343 kts 313°
2026-04-22 05:05 35.22436 -120.30405 30115 ft 344 kts 314°
2026-04-22 05:05 35.26293 -120.33906 30114 ft 343 kts 314°
2026-04-22 05:06 35.30117 -120.37404 30120 ft 342 kts 314°
2026-04-22 05:06 35.33940 -120.40904 30113 ft 342 kts 314°
2026-04-22 05:07 35.37763 -120.44422 30115 ft 343 kts 314°
2026-04-22 05:07 35.41576 -120.47929 30112 ft 341 kts 314°
2026-04-22 05:08 35.45395 -120.51448 30113 ft 343 kts 314°
2026-04-22 05:08 35.49208 -120.54948 30109 ft 345 kts 314°
2026-04-22 05:09 35.53152 -120.58591 30115 ft 362 kts 315°
2026-04-22 05:09 35.57370 -120.62292 30117 ft 382 kts 316°
2026-04-22 05:10 35.61802 -120.66048 29660 ft 384 kts 316°
2026-04-22 05:10 35.63952 -120.67872 29204 ft 378 kts 316°
2026-04-22 05:10 35.66111 -120.69713 28551 ft 376 kts 316°
2026-04-22 05:10 35.68249 -120.71551 27640 ft 380 kts 316°
2026-04-22 05:11 35.70425 -120.73428 26683 ft 385 kts 316°
2026-04-22 05:11 35.72609 -120.75318 25709 ft 389 kts 316°
2026-04-22 05:11 35.74825 -120.77237 25003 ft 386 kts 316°
2026-04-22 05:11 35.77008 -120.79118 24382 ft 382 kts 316°
2026-04-22 05:12 35.79142 -120.80955 23720 ft 379 kts 316°
2026-04-22 05:12 35.81293 -120.82812 23046 ft 377 kts 316°
2026-04-22 05:12 35.83425 -120.84659 22375 ft 375 kts 316°
2026-04-22 05:12 35.85564 -120.86517 21677 ft 374 kts 316°
2026-04-22 05:13 35.87672 -120.88348 20986 ft 373 kts 316°
2026-04-22 05:13 35.89793 -120.90192 20285 ft 371 kts 316°
2026-04-22 05:13 35.91905 -120.92033 19581 ft 369 kts 316°
2026-04-22 05:13 35.93992 -120.93852 18877 ft 368 kts 316°
2026-04-22 05:14 35.96065 -120.95663 18179 ft 365 kts 316°
2026-04-22 05:14 35.98119 -120.97458 17500 ft 364 kts 316°
2026-04-22 05:14 36.00175 -120.99258 16721 ft 364 kts 316°
2026-04-22 05:14 36.02242 -121.01067 15974 ft 363 kts 317°
2026-04-22 05:15 36.04297 -121.02860 15264 ft 361 kts 318°
2026-04-22 05:15 36.06331 -121.04635 14594 ft 358 kts 318°
2026-04-22 05:15 36.08355 -121.06403 13871 ft 357 kts 319°
2026-04-22 05:15 36.10393 -121.08189 13092 ft 358 kts 319°
2026-04-22 05:16 36.12410 -121.09954 12401 ft 355 kts 320°
2026-04-22 05:16 36.14409 -121.11703 11686 ft 354 kts 320°
2026-04-22 05:16 36.16416 -121.13463 10994 ft 353 kts 321°
2026-04-22 05:16 36.18399 -121.15200 10370 ft 350 kts 321°
2026-04-22 05:17 36.20396 -121.16951 9635 ft 351 kts 322°
2026-04-22 05:17 36.22369 -121.18684 8904 ft 351 kts 322°
2026-04-22 05:17 36.24340 -121.20417 8204 ft 347 kts 322°
2026-04-22 05:17 36.26298 -121.22137 7287 ft 343 kts 322°
2026-04-22 05:18 36.30104 -121.25485 5709 ft 329 kts 322°
2026-04-22 05:18 36.31942 -121.27105 4924 ft 324 kts 322°
2026-04-22 05:18 36.33765 -121.28715 4315 ft 326 kts 323°
2026-04-22 05:19 36.35639 -121.30373 4742 ft 333 kts 323°
2026-04-22 05:19 36.37495 -121.32008 4929 ft 320 kts 323°
2026-04-22 05:19 36.39246 -121.33549 4971 ft 294 kts 323°
2026-04-22 05:19 36.40868 -121.34976 4965 ft 276 kts 322°
2026-04-22 05:20 36.42289 -121.36447 4963 ft 258 kts 311°
2026-04-22 05:20 36.43313 -121.38169 4967 ft 240 kts 297°
2026-04-22 05:20 36.43994 -121.39987 4990 ft 221 kts 291°
2026-04-22 05:20 36.44518 -121.41694 4985 ft 201 kts 289°
2026-04-22 05:21 36.45002 -121.43216 4962 ft 182 kts 290°
2026-04-22 05:21 36.45264 -121.44659 4949 ft 162 kts 268°
2026-04-22 05:21 36.45132 -121.46030 4450 ft 174 kts 279°
2026-04-22 05:21 36.45150 -121.47620 3666 ft 188 kts 281°
2026-04-22 05:22 36.45319 -121.49111 3584 ft 167 kts 275°
2026-04-22 05:22 36.45532 -121.50571 2622 ft 189 kts 248°